Regional Weather Roundup
Issued by NWS Sioux Falls, SD

Home | Current Version | Previous Version | Graphics & Text | Print | Product List | Glossary On
Versions: 1 2 3 4 5 6 7 8 9 10 11 12 13 14 15 16 17 18 19 20 21 22 23 24 25 26 27 28 29 30 31 32 33 34 35 36 37 38 39 40 41 42 43 44 45 46 47 48 49 50
000
ASUS43 KFSD 160202
RWRFSD

WEATHER ROUNDUP FOR SE SOUTH DAKOTA/SW MINNESOTA/NW IOWA
NATIONAL WEATHER SERVICE SIOUX FALLS SD
800 PM CST SUN JAN 15 2017

NOTE: "FAIR" INDICATES FEW OR NO CLOUDS BELOW 12,000 FEET WITH NO
SIGNIFICANT WEATHER AND OR OBSTRUCTIONS TO VISIBILITY.


SDZ038>040-050-052>070-160300-
SOUTHEAST SOUTH DAKOTA

CITY           SKY/WX    TMP DP  RH WIND       PRES   REMARKS
BROOKINGS      CLOUDY    22  18  85 SE7       30.12F WCI  13
CHAMBERLAIN    CLOUDY    21  16  81 CALM      30.10S
HURON          CLOUDY    16  14  92 E3        30.13S
MADISON          N/A     23  23 100 S5          N/A  WCI  17
MITCHELL       CLOUDY    27  22  81 S8        30.13S WCI  19
SIOUX FALLS    CLOUDY    28  19  69 S9        30.15F WCI  19
WINNER         FAIR      27  20  75 E3        30.07S
YANKTON        PTCLDY    28  19  69 E5        30.14S WCI  23
$$

MNZ071-072-080-081-089-090-097-098-160300-
SOUTHWEST MINNESOTA

CITY           SKY/WX    TMP DP  RH WIND       PRES   REMARKS
FAIRMONT       CLOUDY    24  20  84 S8        30.21F WCI  15
JACKSON        CLOUDY    27  19  74 S7        30.19S WCI  19
LUVERNE        CLOUDY    21  14  73 CALM      30.17S
MARSHALL       CLOUDY    22  18  85 S7        30.16F WCI  13
MONTEVIDEO     CLOUDY    25  19  80 SW7       30.18S WCI  17
PIPESTONE      CLOUDY    25  18  74 S10       30.14S WCI  15
REDWOOD FALLS  PTCLDY    22  17  81 S9        30.18S WCI  12
TRACY          CLOUDY    27  21  79 S7        30.16S WCI  19
WINDOM         CLOUDY    25  19  80 S7        30.17S WCI  17
WORTHINGTON    CLOUDY    26  19  74 S6          N/A  WCI  19
$$

IAZ001>003-012>014-020>022-031-032-NEZ013-014-SDZ071-160300-
NORTHWEST IOWA

CITY           SKY/WX    TMP DP  RH WIND       PRES   REMARKS
CHEROKEE       CLOUDY    27  22  80 E7        30.18F WCI  19
DENISON        CLOUDY    32  30  93 SE6       30.16S FOG     WCI  26
ESTHERVILLE    CLOUDY    23  20  88 S7        30.20S WCI  15
LE MARS        CLOUDY    28  16  59 CALM      30.18F
ORANGE CITY    CLOUDY    27  18  69 E5        30.16F WCI  21
SHELDON        CLOUDY    27  19  74 SE5       30.16F WCI  21
SIOUX CITY     CLOUDY    32  21  64 SE6       30.17F WCI  26
SPENCER        CLOUDY    23  18  81 SE7       30.19F WCI  15
STORM LAKE     CLOUDY    28  23  80 SE7       30.17F WCI  21
$$

ABBREVIATIONS USED IN REMARKS
   TC - TEMPERATURE IN CELSIUS
  WCI - WIND CHILL INDEX
   HX - HEAT INDEX
  VSB - VISIBILITY





USA.gov is the U.S. government's official web portal to all federal, state and local government web resources and services.